Tracking 25723 objects as of 27-Jun-2022
HD Live streaming from Space Station
objects crossing your sky now

ASAP-S

Track ASAP-S now!
10-day predictions
ASAP-S is classified as:


NORAD ID: 38013
Int'l Code: 2011-076G
Perigee: 573.8 km
Apogee: 587.1 km
Inclination: 98.1 °
Period: 96.1 minutes
Semi major axis: 6951 km
RCS: 2.764 m2 (large)
Launch date: December 17, 2011
Source: France (FR)
Launch site: FRENCH GUIANA (FRGUI)
aabbcc
Your satellite tracking list
Your tracking list is empty




NASA's NSSDC Master Catalog

Two Line Element Set (TLE):
1 38013U 11076G   22177.57676069  .00001603  00000-0  14135-3 0  9992
2 38013  98.1204  14.5466 0009584  62.6353 297.5842 14.97922998574012
Source of the keplerian elements: AFSPC